EZY7645 LPPT-LEMG

Flight info

Callsign EZY7645
Flight time 0h 52m
Altitude 33000
Route DUZOP DCT MINTA/N0454F320 DCT OSLEP DCT NAPES DCT ONUBA DCT PIMUR DCT SVL
Aircraft A320/M-SDE3FGHIRWY/LB1

Departure

Time 2026-05-06 15:07
Airport Lisbon Humberto Delgado Airport (LPPT)

Arrival

Time 2026-05-06 15:59
Airport Málaga-Costa del Sol Airport (LEMG)
Time Latitude Longitude Altitude Speed Heading
2026-05-06 14:41 38.77116 -9.13111 332 ft 0 kts 78°
2026-05-06 14:42 38.77115 -9.13111 332 ft 0 kts 78°
2026-05-06 14:56 38.77115 -9.13113 337 ft 2 kts 78°
2026-05-06 14:56 38.77110 -9.13145 336 ft 4 kts 78°
2026-05-06 14:56 38.77105 -9.13172 334 ft 4 kts 85°
2026-05-06 14:57 38.77110 -9.13198 334 ft 4 kts 151°
2026-05-06 14:57 38.77114 -9.13202 335 ft 4 kts 168°
2026-05-06 14:57 38.77095 -9.13197 336 ft 0 kts 168°
2026-05-06 15:01 38.77049 -9.13194 339 ft 12 kts 195°
2026-05-06 15:02 38.77011 -9.13266 338 ft 8 kts 234°
2026-05-06 15:02 38.76960 -9.13278 341 ft 13 kts 173°
2026-05-06 15:02 38.76893 -9.13262 339 ft 15 kts 168°
2026-05-06 15:02 38.76797 -9.13243 340 ft 13 kts 189°
2026-05-06 15:03 38.76756 -9.13319 349 ft 10 kts 256°
2026-05-06 15:03 38.76716 -9.13407 351 ft 13 kts 219°
2026-05-06 15:03 38.76653 -9.13497 350 ft 9 kts 255°
2026-05-06 15:03 38.76634 -9.13610 345 ft 19 kts 258°
2026-05-06 15:04 38.76616 -9.13724 354 ft 20 kts 258°
2026-05-06 15:04 38.76586 -9.13902 354 ft 21 kts 258°
2026-05-06 15:04 38.76558 -9.14093 348 ft 22 kts 265°
2026-05-06 15:04 38.76599 -9.14255 337 ft 16 kts 292°
2026-05-06 15:05 38.76605 -9.14273 336 ft 0 kts 292°
2026-05-06 15:05 38.76605 -9.14275 333 ft 2 kts 292°
2026-05-06 15:05 38.76632 -9.14349 333 ft 13 kts 307°
2026-05-06 15:06 38.76731 -9.14340 335 ft 30 kts 22°
2026-05-06 15:06 38.77145 -9.14123 363 ft 95 kts 22°
2026-05-06 15:06 38.77926 -9.13704 368 ft 146 kts 23°
2026-05-06 15:06 38.78943 -9.13151 770 ft 157 kts 20°
2026-05-06 15:07 38.79933 -9.12580 1518 ft 155 kts 17°
2026-05-06 15:07 38.80913 -9.12011 2209 ft 157 kts 19°
2026-05-06 15:07 38.81959 -9.11361 2545 ft 178 kts 26°
2026-05-06 15:07 38.83095 -9.10500 2845 ft 203 kts 27°
2026-05-06 15:08 38.84376 -9.09510 3212 ft 228 kts 30°
2026-05-06 15:08 38.85480 -9.07941 3673 ft 256 kts 63°
2026-05-06 15:08 38.85729 -9.05644 4421 ft 270 kts 98°
2026-05-06 15:08 38.84875 -9.03500 5346 ft 275 kts 133°
2026-05-06 15:09 38.83440 -9.01844 6286 ft 278 kts 140°
2026-05-06 15:09 38.81901 -9.00326 7133 ft 281 kts 143°
2026-05-06 15:09 38.80307 -8.98834 7951 ft 286 kts 143°
2026-05-06 15:09 38.78689 -8.97326 8790 ft 289 kts 143°
2026-05-06 15:10 38.77079 -8.95800 9602 ft 294 kts 144°
2026-05-06 15:10 38.75426 -8.94211 10303 ft 302 kts 144°
2026-05-06 15:10 38.73687 -8.92521 10566 ft 326 kts 144°
2026-05-06 15:10 38.71821 -8.90693 10768 ft 349 kts 143°
2026-05-06 15:11 38.69845 -8.88746 11153 ft 364 kts 144°
2026-05-06 15:11 38.67829 -8.86755 11793 ft 369 kts 144°
2026-05-06 15:11 38.65784 -8.84738 12527 ft 372 kts 144°
2026-05-06 15:11 38.63726 -8.82711 13275 ft 374 kts 144°
2026-05-06 15:12 38.61654 -8.80674 13940 ft 378 kts 144°
2026-05-06 15:12 38.59556 -8.78612 14555 ft 382 kts 144°
2026-05-06 15:12 38.57438 -8.76531 15172 ft 385 kts 145°
2026-05-06 15:12 38.55308 -8.74441 15782 ft 388 kts 144°
2026-05-06 15:13 38.53160 -8.72339 16398 ft 390 kts 144°
2026-05-06 15:13 38.50995 -8.70222 17024 ft 392 kts 144°
2026-05-06 15:13 38.48821 -8.68098 17610 ft 395 kts 144°
2026-05-06 15:13 38.46627 -8.65953 18171 ft 399 kts 144°
2026-05-06 15:14 38.44415 -8.63793 18653 ft 402 kts 144°
2026-05-06 15:14 38.42190 -8.61618 19139 ft 405 kts 144°
2026-05-06 15:14 38.39948 -8.59427 19616 ft 408 kts 144°
2026-05-06 15:14 38.37683 -8.57217 20088 ft 411 kts 144°
2026-05-06 15:15 38.35404 -8.55002 20554 ft 413 kts 145°
2026-05-06 15:15 38.33112 -8.52776 21012 ft 416 kts 145°
2026-05-06 15:15 38.30798 -8.50534 21459 ft 419 kts 145°
2026-05-06 15:15 38.28462 -8.48276 21899 ft 422 kts 145°
2026-05-06 15:16 38.26114 -8.46005 22351 ft 425 kts 146°
2026-05-06 15:16 38.23756 -8.43719 22792 ft 428 kts 146°
2026-05-06 15:16 38.21380 -8.41411 23215 ft 431 kts 146°
2026-05-06 15:16 38.18990 -8.39089 23606 ft 434 kts 146°
2026-05-06 15:17 38.16619 -8.36789 23941 ft 436 kts 146°
2026-05-06 15:17 38.14190 -8.34441 24281 ft 439 kts 146°
2026-05-06 15:17 38.11749 -8.32089 24627 ft 441 kts 146°
2026-05-06 15:17 38.09297 -8.29723 24971 ft 443 kts 146°
2026-05-06 15:18 38.06834 -8.27348 25311 ft 446 kts 146°
2026-05-06 15:18 38.04358 -8.24963 25641 ft 448 kts 146°
2026-05-06 15:18 38.01867 -8.22569 25982 ft 450 kts 146°
2026-05-06 15:18 37.99361 -8.20165 26297 ft 453 kts 146°
2026-05-06 15:19 37.96841 -8.17753 26594 ft 455 kts 146°
2026-05-06 15:19 37.94310 -8.15335 26897 ft 457 kts 146°
2026-05-06 15:19 37.91766 -8.12899 27195 ft 459 kts 146°
2026-05-06 15:19 37.89212 -8.10448 27451 ft 462 kts 146°
2026-05-06 15:20 37.86640 -8.07983 27724 ft 464 kts 146°
2026-05-06 15:20 37.84088 -8.05541 27999 ft 467 kts 146°
2026-05-06 15:20 37.81493 -8.03062 28271 ft 469 kts 146°
2026-05-06 15:20 37.78882 -8.00571 28563 ft 470 kts 146°
2026-05-06 15:21 37.76272 -7.98082 28956 ft 470 kts 146°
2026-05-06 15:21 37.73665 -7.95596 29364 ft 469 kts 146°
2026-05-06 15:21 37.71059 -7.93112 29761 ft 469 kts 146°
2026-05-06 15:21 37.68460 -7.90635 30112 ft 468 kts 146°
2026-05-06 15:22 37.65861 -7.88159 30425 ft 468 kts 146°
2026-05-06 15:22 37.63259 -7.85689 30725 ft 468 kts 146°
2026-05-06 15:22 37.60650 -7.83222 31031 ft 468 kts 146°
2026-05-06 15:22 37.58039 -7.80761 31333 ft 468 kts 146°
2026-05-06 15:23 37.55430 -7.78300 31638 ft 469 kts 146°
2026-05-06 15:23 37.52819 -7.75834 31952 ft 469 kts 146°
2026-05-06 15:23 37.50210 -7.73370 32253 ft 469 kts 146°
2026-05-06 15:23 37.47600 -7.70906 32564 ft 469 kts 146°
2026-05-06 15:24 37.44990 -7.68444 32841 ft 469 kts 146°
2026-05-06 15:24 37.39783 -7.63535 32921 ft 471 kts 146°
2026-05-06 15:25 37.34536 -7.58591 32915 ft 470 kts 146°
2026-05-06 15:25 37.29299 -7.53676 32920 ft 469 kts 146°
2026-05-06 15:26 37.24061 -7.48775 32922 ft 469 kts 146°
2026-05-06 15:26 37.19046 -7.43613 32925 ft 473 kts 135°
2026-05-06 15:26 37.17090 -7.40279 32924 ft 478 kts 122°
2026-05-06 15:27 37.15728 -7.36471 32920 ft 481 kts 109°
2026-05-06 15:27 37.15015 -7.32363 32914 ft 483 kts 97°
2026-05-06 15:27 37.14993 -7.28141 32909 ft 484 kts 84°
2026-05-06 15:28 37.16408 -7.19885 32900 ft 485 kts 77°
2026-05-06 15:28 37.17981 -7.11630 32895 ft 487 kts 77°
2026-05-06 15:29 37.19551 -7.03351 32894 ft 489 kts 77°
2026-05-06 15:29 37.21110 -6.95090 32897 ft 490 kts 77°
2026-05-06 15:30 37.22681 -6.86755 32903 ft 490 kts 77°
2026-05-06 15:30 37.24236 -6.78413 32882 ft 492 kts 78°
2026-05-06 15:31 37.25786 -6.70030 32889 ft 493 kts 78°
2026-05-06 15:31 37.27339 -6.61641 32888 ft 494 kts 78°
2026-05-06 15:32 37.29660 -6.49026 32890 ft 494 kts 78°
2026-05-06 15:32 37.31198 -6.40656 32900 ft 495 kts 79°
2026-05-06 15:33 37.32737 -6.32203 32889 ft 496 kts 79°
2026-05-06 15:33 37.34265 -6.23727 32888 ft 497 kts 79°
2026-05-06 15:34 37.35798 -6.15244 32893 ft 497 kts 79°
2026-05-06 15:34 37.37331 -6.06763 32789 ft 499 kts 79°
2026-05-06 15:35 37.38098 -6.02492 32496 ft 501 kts 79°
2026-05-06 15:35 37.38867 -5.98194 31353 ft 508 kts 79°
2026-05-06 15:35 37.39637 -5.93864 30205 ft 517 kts 79°
2026-05-06 15:35 37.40405 -5.89413 28944 ft 521 kts 83°
2026-05-06 15:36 37.40688 -5.84921 28055 ft 510 kts 94°
2026-05-06 15:36 37.40342 -5.80543 26355 ft 501 kts 106°
2026-05-06 15:36 37.39232 -5.76393 25279 ft 497 kts 118°
2026-05-06 15:36 37.37570 -5.72680 24759 ft 480 kts 128°
2026-05-06 15:37 37.35510 -5.69423 23960 ft 470 kts 138°
2026-05-06 15:37 37.33095 -5.66735 23178 ft 461 kts 145°
2026-05-06 15:37 37.30588 -5.64261 22467 ft 454 kts 146°
2026-05-06 15:37 37.28109 -5.61841 21795 ft 448 kts 146°
2026-05-06 15:38 37.25651 -5.59460 21119 ft 443 kts 146°
2026-05-06 15:38 37.23221 -5.57115 20479 ft 438 kts 145°
2026-05-06 15:38 37.20817 -5.54795 19852 ft 433 kts 145°
2026-05-06 15:38 37.18448 -5.52500 19244 ft 429 kts 145°
2026-05-06 15:39 37.16100 -5.50218 18668 ft 424 kts 144°
2026-05-06 15:39 37.13810 -5.47991 18088 ft 419 kts 144°
2026-05-06 15:39 37.11570 -5.45679 17217 ft 417 kts 136°
2026-05-06 15:39 37.09850 -5.42727 16488 ft 420 kts 119°
2026-05-06 15:40 37.08711 -5.39391 16036 ft 414 kts 113°
2026-05-06 15:40 37.07649 -5.36063 15866 ft 407 kts 113°
2026-05-06 15:40 37.06632 -5.32849 15885 ft 387 kts 113°
2026-05-06 15:40 37.05667 -5.29781 15894 ft 370 kts 113°
2026-05-06 15:41 37.04745 -5.26845 15901 ft 355 kts 113°
2026-05-06 15:41 37.03857 -5.24018 15889 ft 343 kts 113°
2026-05-06 15:41 37.03120 -5.21199 15910 ft 342 kts 100°
2026-05-06 15:41 37.03154 -5.18251 15725 ft 338 kts 77°
2026-05-06 15:42 37.04048 -5.15613 15370 ft 325 kts 53°
2026-05-06 15:42 37.05562 -5.13590 14982 ft 315 kts 41°
2026-05-06 15:42 37.07189 -5.11780 14475 ft 311 kts 40°
2026-05-06 15:42 37.08815 -5.10010 13973 ft 308 kts 40°
2026-05-06 15:43 37.10430 -5.08261 13428 ft 305 kts 40°
2026-05-06 15:43 37.12031 -5.06530 12859 ft 303 kts 40°
2026-05-06 15:43 37.13621 -5.04818 12313 ft 299 kts 40°
2026-05-06 15:43 37.15193 -5.03135 11789 ft 295 kts 40°
2026-05-06 15:44 37.16738 -5.01486 11414 ft 286 kts 40°
2026-05-06 15:44 37.18218 -4.99906 11013 ft 282 kts 40°
2026-05-06 15:44 37.19707 -4.98315 10746 ft 280 kts 40°
2026-05-06 15:44 37.21184 -4.96736 10462 ft 278 kts 40°
2026-05-06 15:45 37.22600 -4.95097 10168 ft 276 kts 51°
2026-05-06 15:45 37.23488 -4.93016 10025 ft 266 kts 75°
2026-05-06 15:45 37.23672 -4.90784 9826 ft 253 kts 98°
2026-05-06 15:45 37.23188 -4.88711 9577 ft 246 kts 118°
2026-05-06 15:46 37.22440 -4.86780 9248 ft 245 kts 117°
2026-05-06 15:46 37.21695 -4.84861 9007 ft 243 kts 118°
2026-05-06 15:46 37.20917 -4.82962 8856 ft 246 kts 126°
2026-05-06 15:46 37.19760 -4.81411 8735 ft 243 kts 146°
2026-05-06 15:47 37.18268 -4.80467 8605 ft 238 kts 166°
2026-05-06 15:47 37.16671 -4.80197 8476 ft 232 kts 181°
2026-05-06 15:47 37.15067 -4.80189 8343 ft 223 kts 181°
2026-05-06 15:47 37.13552 -4.80175 8208 ft 213 kts 181°
2026-05-06 15:48 37.12115 -4.80158 8082 ft 205 kts 181°
2026-05-06 15:48 37.10703 -4.80140 7962 ft 202 kts 181°
2026-05-06 15:48 37.09298 -4.80122 7833 ft 202 kts 181°
2026-05-06 15:48 37.07889 -4.80106 7708 ft 202 kts 181°
2026-05-06 15:49 37.06482 -4.80089 7584 ft 202 kts 181°
2026-05-06 15:49 37.05079 -4.80076 7463 ft 202 kts 181°
2026-05-06 15:49 37.03678 -4.80062 7333 ft 202 kts 180°
2026-05-06 15:49 37.02274 -4.80046 7208 ft 202 kts 180°
2026-05-06 15:50 37.00870 -4.80029 7088 ft 201 kts 180°
2026-05-06 15:50 36.99941 -4.80018 6981 ft 202 kts 181°
2026-05-06 15:50 36.98537 -4.80001 6828 ft 201 kts 181°
2026-05-06 15:50 36.97143 -4.79985 6780 ft 200 kts 181°
2026-05-06 15:51 36.95748 -4.79970 6734 ft 201 kts 181°
2026-05-06 15:51 36.94347 -4.79956 6684 ft 201 kts 181°
2026-05-06 15:51 36.92952 -4.79798 6609 ft 202 kts 168°
2026-05-06 15:51 36.91610 -4.79257 6406 ft 203 kts 162°
2026-05-06 15:52 36.90270 -4.78668 6147 ft 205 kts 162°
2026-05-06 15:52 36.88914 -4.78076 5866 ft 207 kts 161°
2026-05-06 15:52 36.87545 -4.77481 5579 ft 207 kts 161°
2026-05-06 15:52 36.86243 -4.76760 5313 ft 203 kts 151°
2026-05-06 15:53 36.85005 -4.75919 5044 ft 203 kts 152°
2026-05-06 15:53 36.83770 -4.75086 4808 ft 201 kts 152°
2026-05-06 15:53 36.82541 -4.74258 4503 ft 200 kts 152°
2026-05-06 15:53 36.81329 -4.73440 4149 ft 202 kts 152°
2026-05-06 15:54 36.80106 -4.72615 3787 ft 194 kts 152°
2026-05-06 15:54 36.78944 -4.71836 3426 ft 184 kts 152°
2026-05-06 15:54 36.77912 -4.71026 3101 ft 169 kts 140°
2026-05-06 15:54 36.77214 -4.69922 2862 ft 155 kts 122°
2026-05-06 15:55 36.76689 -4.68788 2807 ft 148 kts 120°
2026-05-06 15:55 36.76198 -4.67665 2746 ft 147 kts 118°
2026-05-06 15:55 36.75720 -4.66546 2696 ft 145 kts 118°
2026-05-06 15:55 36.75250 -4.65432 2574 ft 145 kts 118°
2026-05-06 15:56 36.74781 -4.64317 2427 ft 145 kts 119°
2026-05-06 15:56 36.74318 -4.63211 2251 ft 142 kts 119°
2026-05-06 15:56 36.73858 -4.62114 2070 ft 143 kts 119°
2026-05-06 15:56 36.73398 -4.61016 1881 ft 142 kts 120°
2026-05-06 15:57 36.72939 -4.59920 1696 ft 142 kts 118°
2026-05-06 15:57 36.72489 -4.58847 1517 ft 140 kts 119°
2026-05-06 15:57 36.72037 -4.57775 1345 ft 139 kts 118°
2026-05-06 15:57 36.71584 -4.56700 1100 ft 143 kts 120°
2026-05-06 15:58 36.71130 -4.55610 944 ft 141 kts 118°
2026-05-06 15:58 36.70683 -4.54539 738 ft 138 kts 120°
2026-05-06 15:58 36.70246 -4.53493 571 ft 135 kts 119°
2026-05-06 15:58 36.69811 -4.52461 412 ft 135 kts 118°
2026-05-06 15:59 36.69379 -4.51425 207 ft 134 kts 118°
2026-05-06 15:59 36.68941 -4.50409 54 ft 127 kts 118°
2026-05-06 15:59 36.68651 -4.49699 46 ft 49 kts 117°
2026-05-06 15:59 36.68510 -4.49367 47 ft 40 kts 118°
2026-05-06 16:00 36.68379 -4.49072 45 ft 38 kts 126°
2026-05-06 16:00 36.68198 -4.48870 40 ft 24 kts 148°
2026-05-06 16:00 36.68183 -4.48859 39 ft 0 kts 149°
2026-05-06 16:01 36.68143 -4.48881 39 ft 14 kts 236°
2026-05-06 16:01 36.68166 -4.48987 40 ft 15 kts 297°
2026-05-06 16:01 36.68244 -4.49176 40 ft 29 kts 298°
2026-05-06 16:02 36.68276 -4.49309 40 ft 14 kts 251°
2026-05-06 16:02 36.68211 -4.49395 41 ft 17 kts 222°
2026-05-06 16:02 36.68106 -4.49512 42 ft 22 kts 221°
2026-05-06 16:02 36.67989 -4.49641 42 ft 23 kts 221°
2026-05-06 16:03 36.67867 -4.49776 42 ft 20 kts 221°
2026-05-06 16:03 36.67773 -4.49850 42 ft 15 kts 171°
2026-05-06 16:03 36.67692 -4.49754 42 ft 17 kts 132°
2026-05-06 16:03 36.67608 -4.49639 42 ft 19 kts 131°
2026-05-06 16:04 36.67525 -4.49520 42 ft 15 kts 130°
2026-05-06 16:04 36.67534 -4.49426 42 ft 10 kts 91°
2026-05-06 16:04 36.67509 -4.49355 41 ft 0 kts 115°